CAPE
48 74 188 314 492 655 872 1013 1057 1244 1164 1227 726 886 651 1052 1145 937 876 915 1251 1238
72 30 115 118 434 704 798 1008 1186 1300 1418 1391 1098 845 1019 1050 1116 1123 1384 1246 1142 885
128 89 51 51 353 862 815 885 995 1347 1541 1531 1463 1182 1095 1199 1190 1050 1014 1225 1258 1214
109 219 338 201 81 177 768 1020 913 996 1484 1513 1661 1404 1132 1107 1099 1009 983 909 1059 1121
30 50 159 289 310 260 159 615 1202 1026 1165 1311 1464 1508 1158 1112 1242 1222 989 1141 1066 932
56 27 31 99 254 311 320 174 608 913 1129 1275 1267 1346 1299 1257 1121 1284 1128 1112 1513 1514
190 117 68 26 53 261 327 332 216 906 1181 1315 1308 1334 1332 1257 1194 1236 1214 1333 1301 1403
238 235 165 78 2 21 179 226 287 347 1215 1412 1418 1433 1374 1466 1521 1622 1573 1664 1572 1426
317 341 419 335 188 33 0 85 139 220 275 1105 1436 1405 1367 1408 1586 1727 1653 1433 1359 1392
476 503 526 619 493 296 117 44 10 107 358 390 744 1289 1461 1445 1430 1250 1120 1187 1248 1229
708 641 599 672 642 546 423 241 182 152 63 490 571 839 1115 1359 1402 1273 1209 1136 1142 1197
1006 1011 1053 1020 955 873 767 670 562 512 471 354 215 820 1207 1335 1355 1352 1332 1312 1310 1251
972 1377 1407 1378 1474 1376 1176 1025 1009 919 864 793 718 391 661 1293 1194 1280 1366 1334 1199 1259
794 874 1042 1136 1392 1461 1441 1408 1226 1151 1092 1063 914 834 874 811 769 795 908 956 938 927
CIN
-164 -139 -45 -23 -50 -74 -60 -63 -74 -34 -20 -34 -65 -46 -67 -45 -29 -68 -53 -63 -59 -54
-151 -156 -65 -146 -77 -23 -61 -65 -69 -82 -45 -29 -21 -66 -33 -53 -42 -53 -48 -42 -53 -59
-267 -211 -193 -59 -117 -33 -33 -42 -49 -68 -57 -32 -28 -14 -51 -31 -30 -33 -69 -57 -65 -61
-225 -219 -172 -134 -132 -122 -67 -37 -44 -111 -68 -54 -29 -21 -47 -47 -36 -44 -51 -49 -40 -47
-218 -203 -239 -184 -145 -108 -64 -74 -25 -30 -105 -69 -44 -21 -42 -63 -44 -28 -41 -41 -38 -53
-83 -89 -250 -304 -225 -152 -101 -39 -12 -38 -29 -66 -68 -60 -22 -46 -53 -34 -34 -35 -20 -19
-48 -65 -80 -87 -293 -232 -150 -108 -181 -113 -90 -87 -79 -97 -56 -57 -55 -45 -35 -26 -49 -39
-270 -25 -32 -57 -4 -115 -240 -176 -128 -169 -77 -38 -57 -61 -77 -99 -66 -36 -35 -32 -30 -35
-65 -16 -18 -15 -30 -42 0 -250 -200 -159 -182 -77 -35 -25 -51 -56 -49 -44 -43 -56 -72 -76
-75 -57 -48 -11 -7 -17 -39 -74 -224 -266 -196 -180 -111 -57 -32 -24 -18 -28 -54 -71 -77 -86
-142 -120 -83 -134 -30 -20 -19 -40 -92 -99 -252 -202 -193 -127 -73 -40 -26 -22 -39 -57 -85 -96
-89 -93 -85 -77 -72 -46 -19 -20 -45 -94 -91 -105 -285 -176 -104 -56 -31 -20 -31 -43 -59 -66
-59 -28 -58 -89 -76 -78 -41 -31 -31 -45 -68 -93 -93 -162 -182 -87 -64 -40 -43 -58 -93 -97
-54 -36 -47 -95 -95 -102 -58 -39 -42 -54 -55 -60 -91 -101 -136 -144 -116 -118 -123 -139 -143 -186
Wind_Speed
nan nan 12 11 10 9 9 8 7 5 4 6 9 9 8 7 8 9 11 10 9 11
nan nan 13 13 13 12 11 10 8 5 3 5 6 7 8 8 8 8 10 10 9 12
14 nan nan nan 14 13 14 14 10 5 3 4 5 4 5 6 8 8 8 9 9 9
18 19 20 17 nan 15 15 13 11 7 3 2 2 3 3 4 6 8 8 5 8 10
nan nan 21 19 17 18 15 15 12 9 5 4 2 2 1 1 1 4 5 7 4 6
nan nan nan nan 21 20 19 17 16 13 9 7 5 7 3 3 3 1 2 4 4 4
23 21 nan nan nan 21 20 19 18 17 14 11 9 8 8 7 6 5 2 1 2 1
26 26 26 nan nan nan 23 18 19 18 17 15 14 12 11 11 10 6 4 4 4 5
30 31 29 30 28 nan nan nan 23 18 15 16 14 12 12 13 12 10 7 6 7 7
33 34 34 34 35 30 25 nan nan 20 19 13 11 12 13 12 12 10 10 10 9 10
32 29 33 36 32 32 31 26 24 22 nan 18 14 14 14 14 12 13 11 11 12 11
32 29 26 30 33 34 35 31 27 25 23 18 17 19 19 20 15 13 11 14 13 13
36 30 24 24 30 38 38 33 34 30 27 22 20 22 20 22 18 12 14 13 14 14
36 32 31 23 26 33 36 39 35 31 30 27 24 23 21 23 19 13 15 15 14 17
Wind_Direction
nan nan 186 173 175 178 170 155 157 132 99 76 63 66 68 85 99 105 122 141 148 141
nan nan 201 190 185 181 183 179 198 180 132 87 74 61 72 78 74 100 120 136 151 154
212 nan nan nan 202 190 188 195 219 214 138 116 108 76 71 87 89 73 109 136 141 165
216 223 225 223 nan 208 204 204 210 223 199 169 127 87 88 89 81 76 82 124 140 139
nan nan 225 226 223 224 218 218 209 223 240 248 262 271 21 47 55 61 72 80 92 144
nan nan nan nan 231 228 223 222 225 220 227 243 269 277 267 275 257 264 43 56 55 69
233 222 nan nan nan 233 231 228 225 228 227 230 240 264 280 270 273 255 238 306 343 5
226 223 220 nan nan nan 230 230 235 232 228 232 239 239 252 260 267 267 250 266 296 296
229 224 219 220 226 nan nan nan 237 245 245 238 235 249 262 254 256 264 257 263 277 292
235 229 223 218 224 224 216 nan nan 236 248 248 241 258 270 275 248 253 262 263 270 277
235 231 232 232 224 227 227 220 220 224 nan 244 245 265 273 278 254 244 248 266 272 282
231 232 233 235 234 228 227 225 220 220 224 226 234 270 280 273 259 246 243 251 265 277
213 230 232 232 230 230 230 226 222 218 221 224 225 248 268 275 262 260 248 249 259 284
211 213 215 222 237 238 231 232 230 224 223 223 230 238 262 276 266 257 247 251 256 264